ARIANE 2 DEB, 27650

Orbit data source: Space-Track

ARIANE 2 DEB, 27650 is space debris in HEO originally from a launch on Fri, 27 Jan 1989 UTC launched from the French Guiana (FRGUI). Debris objects in space refer to the collection of defunct objects orbiting the Earth. Examples of debris include non-operational satellites, rocket bodies, and fragments generated from explosions, collisions, or faulty payload assembly.

Loading next visibility...
ARIANE 2 DEB details
Identifier
27650, 1989-006AE
Orbit
HEO
Last TLE update2 days ago
Origin
Flag of FRArianespace (FR)
ManufacturerEADS/LV
MissionSpacecraft
Bus & MotorUnknown
MassUnknown
Launch date (UTC)
1989-01-27 (36 years ago)
Launch vehicleUnknown
Launch site
French Guiana (FRGUI)
Object type
Payload
Rocket body
Debris
Shape & HBRUnknown
Radar Cross SectionMedium (>0.1 m² and <1 m²)

Expand to show TLE details & history

TLE from 2 days ago
0 ARIANE 2 DEB
1 27650U 89006AE  24359.83129135  .00000997  00000-0  16303-2 0  9998
2 27650   8.1824 113.5795 7202325 358.5362   0.0489  2.32642962195540
Epoch: 2024-12-24T19:57Z
Definitive object data (Epoch: 2024-12-24T19:57:03.572Z)
Latitude-0.00084°
Longitude80.42877°
Altitude338.067 km
Speed10.105 km/s
True Right ascension07h 34m 06s
True Declination0° 00' 03"
Sunlit
Object was in full shadow at TLE epoch
Visualization TLE readout
Latitude-0.84878°
Longitude-94.47401°
Altitude34,473.565 km
Speed1.717 km/s
Apparent Right ascension20h 05m 59s
Apparent Declination-7° 19' 49"
Sunlit
Object is in daylight
Visualization observer readout
Local Sidereal Time18:27:13
Azimuth148.502° SSE
Elevation37.539°
Doppler factor1
Orbital elements
Apogee altitude35,017.886 km
Perigee altitude354.245 km
Semi-major axis24,064.202 km
Eccentricity0.7202325
Inclination8.1824°
RAAN113.5795°
Arg. of periapsis358.5362°
True anomaly0.43341°
Mean anomaly0.0489°
Eccentric anomaly0.17479°
Mean motion0.58141 °/min
BSTAR0.0016303
Orbital period619.18 mins
Loading maneuver chart data...
Loading historical data...
Loading historical data...
Loading historical data...
Loading historical data...
Loading historical data...
Loading historical data...
Loading historical data...

ARIANE 2 DEB Visibility forecast

Observer location: undefined°, undefined

Span
Click to sort rows by Start time (UTC) header in descending order
Start Az.
Max El. time (UTC)
Max El. Az.
Max El.
End time (UTC)
End Az.
226 mins2024-12-26 19:04:37.297Z148.512° SSE2024-12-26 19:53:37.297Z155.876° SSE31.692°2024-12-26 22:50:37.297Z143.112° SSE
|